Flag for Congo Dem.Rep. Weather past 2 weeks in Bukavu, Congo Dem.Rep.

Now
64 °F

Scattered clouds.


Feels Like: 64 °F
Forecast: 55 / 71 °F
Wind: 3 mph from Southwest

Location: Kigali Airport

Current Time: Apr 26, 2015 at 7:40:45 AM

Latest Report: Apr 26, 2015 at 7:00 AM


Visibility: N/A

Pressure: 30.15 "Hg

Humidity: 100%

Dew point: 64 °F

Location of BukavuLocation

Historic Weather in Bukavu — Graph

°F

Bukavu temperature yesterday

Maximum temperature yesterday: 77 °F (at 2:30 PM)
Minimum temperature yesterday: 63 °F (at 3:00 AM)
Average temperature yesterday: 69 °F

Past Weeks' High & Low Weather Summary

 TemperatureHumidityPressure
High84 °F (Apr 11, 2:30 PM)100% (Apr 11, 6:30 AM)30.27 "Hg (Apr 11, 6:30 AM)
Low61 °F (Apr 13, 6:00 AM)48% (Apr 11, 3:30 PM)30.01 "Hg (Apr 14, 2:30 PM)
Average69 °F89%30.15 "Hg
* Reported Apr 11 6:30 AM — Apr 26 6:30 AM, Bukavu, Weather by CustomWeather, © 2015

Note: Actual official high and low records may vary slightly from our data, if they occured in-between our weather recording intervals... More about our weather records

Advertising

Bukavu weather history for previous 24 hours

 ConditionsComfort  
Time TempWeatherWind HumidityBarometerVisibility
6:30 AM
Sun, Apr 26
63 °FScattered clouds.3 mph100%30.15 "HgN/A
6:00 AM63 °FScattered clouds.3 mph100%30.15 "HgN/A
5:30 AM63 °FPassing clouds.3 mph100%30.15 "HgN/A
5:00 AM63 °FPassing clouds.No wind100%30.15 "HgN/A
4:00 AM64 °FPassing clouds.No wind100%30.12 "HgN/A
3:00 AM64 °FPassing clouds.3 mph100%30.12 "HgN/A
2:00 AM64 °FPassing clouds.No wind100%30.12 "HgN/A
1:30 AM64 °FPassing clouds.No wind100%30.15 "HgN/A
1:00 AM64 °FPassing clouds.No wind100%30.15 "HgN/A
12:30 AM64 °FPassing clouds.3 mph100%30.18 "HgN/A
12:00 AM66 °FPassing clouds.3 mph100%30.18 "HgN/A
11:00 PM
Sat, Apr 25
66 °FPassing clouds.No wind100%30.18 "HgN/A
10:30 PM66 °FPassing clouds.No wind100%30.18 "HgN/A
10:00 PM66 °FPassing clouds.No wind100%30.15 "HgN/A
9:30 PM66 °FPassing clouds.No wind100%30.15 "HgN/A
9:00 PM68 °FPassing clouds.No wind94%30.15 "HgN/A
8:30 PM68 °FPassing clouds.No wind94%30.12 "HgN/A
8:00 PM70 °FPassing clouds.No wind83%30.12 "HgN/A
7:30 PM70 °FPassing clouds.3 mph88%30.12 "HgN/A
7:00 PM70 °FPassing clouds.5 mph88%30.12 "HgN/A
6:30 PM72 °FPassing clouds.5 mph78%30.09 "HgN/A
6:00 PM75 °FPartly cloudy.No wind74%30.09 "HgN/A
5:30 PM75 °FScattered clouds.3 mph69%30.09 "HgN/A
5:00 PM75 °FScattered clouds.3 mph69%30.09 "HgN/A
4:30 PM75 °FScattered clouds.5 mph69%30.09 "HgN/A
4:00 PM77 °FScattered clouds.6 mph65%30.09 "HgN/A
3:30 PM77 °FScattered clouds.5 mph65%30.09 "HgN/A
2:30 PM77 °FPartly sunny.3 mph65%30.09 "HgN/A
2:00 PM75 °FBroken clouds.3 mph69%30.12 "HgN/A
1:30 PM75 °FBroken clouds.6 mph74%30.12 "HgN/A
1:00 PM75 °FBroken clouds.7 mph74%30.12 "HgN/A
12:30 PM73 °FBroken clouds.7 mph78%30.15 "HgN/A
12:00 PM75 °FBroken clouds.9 mph74%30.15 "HgN/A
11:30 AM75 °FBroken clouds.8 mph74%30.18 "HgN/A
11:00 AM72 °FBroken clouds.7 mph83%30.18 "HgN/A
10:30 AM72 °FPartly sunny.3 mph88%30.21 "HgN/A
10:00 AM70 °FPartly sunny.5 mph94%30.21 "HgN/A
9:30 AM70 °FPartly sunny.6 mph94%30.21 "HgN/A
9:00 AM70 °FPartly sunny.No wind100%30.21 "HgN/A
8:00 AM68 °FPartly sunny.No wind100%30.18 "Hg5 mi
7:30 AM66 °FPartly sunny.No wind100%30.18 "Hg5 mi
7:00 AM64 °FPartly sunny.No wind100%30.18 "HgN/A
Weather by CustomWeather, © 2015

See weather overviewHow to use our weather pages